Theta_e
336 337 337 339 339 333 330 331 332 333 333 333 334 335 337 339 341 341 342 344 344 342 344 346 345 347 347 347 347 347 349 349 348 348 347 345 346 348 348 349 349 349 350 351 351 353 355 357 358 359 358 357 357 357 356 356 356 360 356 356 356 356 352
335 337 336 338 337 337 339 332 332 334 334 334 334 335 336 339 341 341 341 344 344 343 344 346 346 347 348 347 348 347 346 348 351 353 350 349 351 349 349 351 351 350 350 353 352 353 355 356 357 357 357 357 357 357 356 356 356 355 357 355 352 352 354
336 334 338 338 338 339 340 339 338 335 334 334 335 335 335 338 341 341 341 343 343 344 344 346 347 347 348 348 347 347 347 347 350 352 349 348 349 350 350 352 352 351 352 353 354 354 356 356 356 356 357 357 357 356 355 355 356 355 356 356 354 353 352
335 337 338 340 340 341 342 342 341 341 338 336 336 336 336 338 342 342 342 343 343 344 344 345 346 347 348 348 347 347 348 347 349 352 353 350 350 351 351 350 352 352 352 353 355 356 357 356 356 355 362 356 356 356 355 355 355 355 356 357 354 353 354
335 337 338 339 340 340 342 342 341 342 341 342 341 339 338 339 342 343 343 344 344 344 346 347 347 347 349 349 349 349 349 349 348 350 352 352 352 352 351 351 351 352 352 353 354 355 356 356 355 355 356 356 356 356 356 355 355 356 356 357 355 354 354
334 334 336 338 339 340 342 344 345 344 343 342 343 343 342 343 343 343 344 345 345 346 347 348 348 348 348 350 350 351 351 350 349 350 351 352 352 353 351 351 351 351 351 352 354 353 354 355 355 355 355 356 356 356 357 356 355 357 356 356 356 356 355
332 334 336 337 338 340 343 345 346 346 347 347 346 348 346 345 348 351 350 348 349 346 348 349 350 350 350 352 351 352 351 351 351 350 351 351 352 353 352 352 353 352 352 352 351 352 352 354 354 354 355 356 355 355 356 356 355 356 356 356 355 355 355
331 332 335 338 340 342 345 346 346 347 347 347 347 346 346 348 348 348 347 347 347 348 349 350 350 350 350 349 349 350 349 348 347 348 350 351 349 350 351 351 352 352 352 351 350 350 351 352 354 354 354 355 355 354 355 356 355 356 356 355 355 355 357
328 330 333 339 341 341 342 342 344 345 346 345 346 346 347 345 345 347 347 347 346 347 348 350 350 350 350 348 348 348 347 347 347 347 348 348 347 349 350 350 350 351 351 351 351 350 350 351 352 353 353 354 354 354 354 354 355 355 355 354 354 354 355
324 324 327 330 334 338 340 339 340 340 341 342 343 345 346 343 345 345 346 347 346 347 348 349 349 350 350 349 349 348 347 347 347 348 348 348 346 346 345 346 346 349 350 350 350 350 350 350 351 351 352 353 353 353 353 353 354 354 354 354 354 354 354
322 323 324 325 326 330 334 336 336 337 338 339 343 344 344 343 343 344 345 346 346 347 348 349 349 348 349 350 349 348 347 347 347 347 347 348 348 347 347 346 344 346 347 348 349 349 348 349 350 350 351 352 352 352 352 352 353 353 353 353 354 354 354
320 321 321 323 325 326 327 329 330 331 332 334 337 339 341 344 344 344 344 345 346 346 347 348 349 349 348 349 349 348 347 347 347 347 347 348 348 349 349 348 346 345 345 346 347 347 348 347 348 350 350 351 351 352 352 352 352 352 352 352 353 353 353
318 319 320 322 323 324 325 325 326 328 330 331 334 338 339 340 343 345 344 345 345 346 347 348 348 348 347 348 348 347 347 347 347 347 348 349 349 350 350 350 349 347 345 347 347 345 345 346 347 348 349 351 351 351 351 351 351 351 351 351 351 351 352
319 316 317 319 320 320 321 322 324 325 327 328 329 332 334 338 341 342 343 343 345 345 346 347 348 346 346 346 345 345 346 347 348 349 349 349 349 350 351 351 350 349 348 347 346 349 348 344 345 346 348 348 350 351 352 351 350 350 350 351 351 350 350
314 314 315 316 317 319 320 321 322 323 325 327 330 330 331 333 336 339 342 344 345 346 347 347 346 345 345 344 344 344 345 345 348 349 349 351 349 348 348 349 348 349 348 349 349 351 351 350 346 345 346 347 347 349 351 351 351 351 351 350 350 350 350
312 313 314 315 316 317 318 319 321 322 324 326 328 330 332 333 335 340 342 343 344 345 346 346 346 347 347 346 346 346 347 346 348 349 348 347 346 345 345 346 347 349 348 350 351 351 351 349 349 345 345 346 346 347 348 349 351 354 347 350 352 350 350
311 311 312 313 314 315 316 317 319 321 323 325 327 329 331 332 334 336 339 341 343 343 345 346 345 345 346 345 346 347 347 347 347 348 347 348 348 347 348 348 347 348 350 350 350 348 347 350 347 347 344 344 346 347 347 348 349 345 337 337 343 353 349
311 311 312 312 313 313 314 316 317 319 321 323 325 327 329 330 333 333 332 333 335 340 344 343 343 341 343 344 345 345 346 346 345 345 346 345 345 346 348 350 350 347 345 346 348 348 351 350 348 347 347 346 344 346 348 348 347 337 333 333 333 343 352
311 312 312 313 314 313 312 314 316 318 319 321 322 322 325 330 331 329 329 328 329 332 333 335 337 338 339 340 340 341 343 344 343 343 343 344 344 345 346 347 346 346 347 348 350 350 347 346 347 347 348 348 345 344 345 348 343 336 334 332 331 331 342
312 313 313 313 313 313 313 314 315 317 318 319 320 323 325 329 330 329 328 327 327 327 327 328 329 330 331 334 335 337 338 340 342 341 342 343 343 343 344 345 345 347 348 350 351 350 349 349 347 347 345 346 346 345 347 347 346 335 331 329 328 329 333
311 313 313 313 313 314 314 314 315 316 317 319 322 322 322 322 325 328 328 327 326 327 327 327 327 327 328 328 330 332 334 335 336 337 340 342 342 341 341 342 342 342 343 347 347 347 348 350 349 348 350 350 349 347 349 350 339 333 329 324 322 324 329
310 311 311 313 314 315 315 315 314 316 319 324 321 320 319 319 323 325 324 326 327 327 325 323 322 321 321 321 323 324 327 330 332 333 334 335 338 338 337 338 340 341 342 346 342 341 342 343 346 347 348 349 350 348 348 351 336 330 328 326 324 323 333
309 309 310 312 314 313 314 314 315 318 319 318 318 318 319 320 320 319 319 319 319 319 319 319 319 320 320 320 321 323 323 326 327 330 331 330 329 330 334 337 338 339 343 343 342 341 341 339 342 344 345 346 347 347 347 349 342 333 327 324 323 327 334
309 309 309 310 311 312 313 314 316 318 317 317 318 318 319 319 320 319 318 318 319 319 319 320 319 320 321 320 321 321 322 324 325 325 324 323 323 326 328 331 335 337 340 341 340 340 341 342 342 342 342 341 343 345 345 345 342 326 324 321 322 327 337
307 307 308 309 310 311 313 314 315 315 316 316 316 317 319 319 318 317 317 317 316 317 316 317 319 319 319 320 321 321 322 323 325 324 322 321 322 325 325 327 331 335 338 337 338 339 338 342 341 341 341 342 341 344 344 344 343 329 324 321 320 329 337
306 307 308 309 310 311 312 314 314 313 313 313 314 318 318 319 319 320 316 316 316 315 316 316 317 317 318 320 321 321 323 322 324 324 322 320 321 322 324 328 326 326 330 333 336 337 338 340 340 338 339 341 344 343 344 344 345 344 329 322 321 319 334
307 308 309 310 312 317 311 312 312 312 313 314 316 318 318 317 315 315 317 315 313 314 315 316 317 317 318 319 320 321 321 320 321 322 321 321 321 323 324 322 322 322 325 327 331 334 335 337 339 340 340 341 343 345 344 346 347 346 329 324 319 316 319
310 311 313 316 317 314 310 310 310 311 311 313 316 317 315 314 314 313 313 312 312 313 315 316 316 317 318 319 319 320 320 320 322 323 322 323 323 320 319 321 321 322 323 324 326 327 329 332 336 337 338 340 343 343 343 347 349 348 335 326 320 314 311
307 308 309 309 311 314 311 309 309 310 310 311 313 314 316 315 314 313 311 310 311 314 314 316 316 317 318 319 317 319 319 320 320 321 321 322 322 320 319 319 320 321 323 322 323 323 324 326 328 331 333 335 338 341 344 346 349 343 343 331 323 320 315
307 308 308 310 310 311 312 308 308 309 309 311 312 312 313 314 313 314 313 308 312 314 315 315 316 316 316 317 315 315 317 319 320 319 318 319 319 320 318 318 319 320 321 320 320 319 319 321 324 325 323 322 323 325 329 331 334 334 332 333 325 318 316
307 307 308 308 309 312 309 307 307 307 308 308 310 311 311 312 313 313 310 309 314 314 312 315 317 315 313 312 312 314 314 315 316 316 315 316 317 317 318 317 318 317 318 318 316 316 316 318 321 320 319 320 320 320 322 325 327 327 330 330 328 322 319
308 308 308 308 308 309 308 308 307 307 307 307 309 310 312 310 310 310 309 311 313 312 313 316 316 315 312 311 312 311 313 313 314 314 313 315 315 317 316 316 317 317 316 315 315 316 316 318 319 319 318 318 318 319 319 321 321 322 323 330 332 329 325
306 306 307 306 308 309 306 307 307 307 308 307 307 309 309 308 308 309 309 311 310 311 313 314 315 314 311 309 310 311 312 312 313 312 312 312 312 313 315 314 314 314 316 314 313 314 317 316 318 317 316 317 316 316 318 318 318 318 320 322 324 326 326
304 304 306 307 307 307 305 305 305 307 307 306 305 307 307 307 306 306 307 308 309 309 312 314 315 311 308 309 310 311 314 313 318 315 311 311 312 311 311 312 315 313 313 313 313 314 314 314 316 314 315 313 314 314 315 315 316 317 318 320 321 319 318
304 304 305 305 305 306 303 304 306 307 308 306 304 305 305 305 306 307 306 307 308 309 311 313 313 311 308 309 308 309 315 315 312 311 312 310 311 311 311 312 313 312 312 313 316 318 316 313 312 317 313 312 312 312 313 315 315 318 315 317 309 310 311
304 304 304 305 306 303 305 306 305 307 306 303 303 304 304 304 305 306 307 307 308 309 311 311 311 307 307 308 308 310 313 313 311 310 313 311 310 310 311 316 311 310 311 312 319 315 307 306 310 313 312 310 312 313 312 313 316 313 304 301 300 300 300
303 303 304 304 303 302 304 305 308 307 306 304 306 306 306 305 305 304 306 307 307 308 308 308 309 308 306 309 308 312 314 312 311 311 310 309 309 309 310 309 310 305 305 307 310 306 301 299 300 301 304 313 310 313 311 310 305 301 300 300 300 299 299
304 304 305 303 303 305 306 305 305 304 305 303 305 304 304 306 305 304 306 307 306 306 305 307 308 306 306 307 307 311 311 309 309 311 310 309 307 308 309 308 308 309 305 304 304 304 302 300 299 299 299 301 305 308 310 309 305 301 300 300 300 299 298
Wind_Speed
2 1 1 2 2 2 9 10 12 12 13 13 12 13 12 11 11 11 11 11 11 10 8 8 8 7 7 6 5 4 4 5 5 5 5 5 5 5 5 5 5 6 5 6 6 6 5 3 4 4 4 4 4 4 4 3 3 3 2 1 0 1 2
5 3 8 9 7 6 1 9 9 10 12 12 11 13 12 12 11 11 11 11 12 12 11 10 9 8 8 7 6 5 5 5 5 4 4 3 3 3 4 5 6 6 5 6 5 4 3 4 4 4 4 4 4 4 4 4 3 3 3 2 2 1 1
10 11 8 5 3 2 2 3 8 10 10 10 11 12 12 13 12 13 12 11 11 10 9 10 10 9 8 7 6 6 6 5 4 4 4 5 4 5 4 4 5 6 6 5 4 5 4 4 4 4 4 5 5 4 4 4 3 3 3 3 3 3 2
11 8 7 7 8 6 2 2 6 6 7 9 11 13 13 13 12 12 12 13 13 11 11 10 10 9 9 9 8 7 7 6 6 5 4 3 4 3 4 4 4 3 4 5 6 5 5 5 5 5 5 5 5 4 3 4 4 3 4 3 3 3 3
12 11 9 6 6 7 6 6 7 6 7 9 8 8 9 9 10 10 10 12 13 14 13 13 10 9 8 8 7 7 7 7 5 4 4 4 3 3 5 6 6 5 6 6 5 5 4 5 5 5 5 5 5 4 5 4 4 4 4 4 4 3 4
12 12 10 9 8 7 6 4 3 6 9 8 5 4 4 4 4 7 8 10 10 8 4 3 3 3 5 6 6 6 5 5 5 5 6 6 6 6 6 6 6 6 5 6 5 5 5 5 5 5 6 5 6 5 5 5 5 4 4 4 4 4 4
9 8 8 8 7 5 4 2 0 1 0 2 4 4 4 5 5 5 6 8 9 11 7 6 5 6 4 4 3 4 6 6 5 5 5 6 6 7 7 6 6 6 6 4 5 5 5 5 5 6 6 6 6 6 6 5 5 4 4 4 4 4 4
6 5 3 4 4 3 2 1 3 3 1 3 5 5 7 6 8 8 10 12 11 8 6 9 9 7 5 4 6 6 5 4 3 3 3 3 3 4 5 5 5 5 4 5 6 5 6 6 5 5 6 6 6 6 5 5 5 5 4 5 4 4 4
7 5 5 5 6 4 5 6 6 5 3 3 5 6 8 9 8 6 8 10 11 12 11 9 6 4 6 7 7 7 7 7 6 6 5 5 4 4 4 4 4 3 5 6 6 5 6 6 6 6 6 6 6 6 5 5 5 4 5 5 5 6 5
9 9 7 7 6 5 5 5 6 6 6 3 4 6 9 10 8 7 8 8 8 9 8 6 5 4 4 5 5 6 7 7 6 7 6 5 4 4 4 4 4 4 4 4 4 5 5 6 6 5 5 6 6 6 6 6 5 5 5 6 6 6 6
7 8 8 8 8 7 8 7 6 5 4 3 3 7 9 9 10 10 9 8 7 6 7 6 6 6 5 7 7 6 5 5 5 5 5 5 4 4 2 1 1 2 4 5 5 4 4 4 4 5 5 6 7 7 7 7 7 6 6 6 5 6 6
6 7 8 9 9 9 8 7 7 7 7 7 5 6 7 8 8 6 6 8 6 5 4 3 3 4 6 6 8 7 7 5 4 4 5 4 4 4 3 3 2 2 2 3 6 5 5 4 4 5 6 7 7 7 7 7 7 7 7 7 6 6 6
5 6 7 10 9 8 8 8 9 9 8 8 6 4 4 3 4 5 10 13 14 11 8 6 6 6 6 6 6 6 6 6 6 5 4 4 5 3 3 4 4 3 3 2 2 3 4 4 5 5 5 7 7 7 7 8 7 7 7 7 6 6 6
7 7 7 7 9 9 8 7 7 8 9 8 5 3 4 5 6 6 6 9 9 8 6 5 6 6 3 2 3 4 5 5 5 5 5 4 3 3 3 3 3 4 4 3 3 3 2 3 4 5 5 6 6 7 7 7 7 7 7 6 7 6 6
7 7 6 8 7 7 8 8 8 8 8 6 6 7 6 6 7 7 3 3 3 4 5 5 3 1 3 1 3 5 4 3 2 2 2 2 3 3 3 2 2 3 3 3 3 3 3 2 3 4 5 6 7 7 6 7 8 7 7 7 7 7 7
7 6 6 6 6 7 7 8 7 6 5 6 6 6 6 5 4 4 7 6 6 5 6 6 7 7 7 7 6 3 1 3 4 1 1 1 0 1 1 1 1 2 3 3 4 4 3 3 3 4 6 7 7 7 7 7 6 9 14 12 8 7 7
7 7 6 6 5 7 8 7 7 7 7 6 5 6 6 6 6 6 7 7 6 6 7 6 5 4 5 7 6 6 6 3 2 2 3 3 3 1 1 2 2 2 3 3 3 3 3 3 3 3 5 7 7 8 8 7 7 12 13 14 15 8 6
8 8 6 6 6 5 7 8 8 9 8 6 4 5 5 4 4 7 7 7 7 6 6 6 7 9 7 6 5 5 5 5 4 3 4 3 3 2 2 3 3 2 2 2 3 3 3 3 3 2 2 3 5 7 8 8 10 13 12 12 12 9 6
8 7 7 5 5 4 5 6 7 8 7 5 4 5 4 4 5 6 7 8 7 7 8 7 7 6 5 4 5 5 5 5 4 3 4 4 4 4 4 4 3 3 3 4 3 2 2 3 2 2 2 2 3 5 6 6 9 12 12 12 13 14 11
8 8 7 7 7 7 5 5 5 4 5 5 5 5 5 5 6 6 7 7 6 8 8 8 7 6 6 6 5 5 5 4 4 5 5 4 4 4 4 5 5 4 3 3 4 4 3 3 3 3 3 3 3 3 3 3 4 7 9 10 11 12 11
8 9 9 7 7 7 7 7 6 5 6 7 6 4 4 5 5 6 6 6 8 7 7 6 5 5 6 6 6 6 5 4 4 4 4 3 3 5 5 4 5 6 5 5 5 5 5 5 4 3 3 3 3 2 3 3 7 4 3 2 4 6 7
6 6 6 5 6 6 6 7 6 6 5 3 4 4 4 3 3 6 6 5 6 6 6 6 6 7 7 8 8 8 7 6 5 4 4 4 3 3 3 3 4 4 4 4 6 6 7 7 6 6 5 4 4 3 3 2 5 4 5 6 5 1 1
8 7 6 6 7 7 6 7 8 8 7 6 5 5 4 4 6 7 6 6 6 6 6 6 7 7 6 7 7 7 6 7 7 7 7 6 6 7 5 4 2 2 2 3 2 2 4 5 6 6 6 5 4 4 4 4 6 6 5 8 9 4 4
8 8 9 9 9 10 9 8 9 8 8 9 8 5 5 6 7 7 7 7 7 8 7 7 7 5 6 6 6 6 5 6 6 7 6 6 7 6 6 5 5 4 1 1 3 1 2 2 2 3 5 6 5 5 4 4 6 8 7 6 8 6 5
10 9 9 9 10 11 10 8 9 8 9 10 9 6 5 7 9 9 8 7 7 7 7 7 6 6 6 5 5 4 4 5 5 5 5 6 6 6 7 6 6 5 5 4 3 3 3 3 4 3 3 1 4 8 6 4 4 4 4 4 6 7 5
11 11 9 9 9 9 8 7 11 11 10 9 5 4 6 8 9 8 6 6 6 8 7 6 4 3 4 5 5 5 5 5 5 5 5 6 6 6 6 5 6 6 6 5 4 4 3 4 3 4 4 2 2 2 3 4 5 5 4 1 4 6 5
8 9 10 10 9 9 10 9 10 9 7 5 5 6 6 7 9 7 5 5 7 7 5 3 4 5 6 6 6 7 7 6 6 6 6 5 4 4 4 5 5 6 6 6 6 5 5 4 4 4 4 4 2 2 2 2 3 3 6 4 3 6 5
9 9 8 7 9 9 9 9 9 9 8 6 7 6 6 7 8 5 5 6 7 4 3 3 5 5 6 6 7 7 7 7 7 6 6 5 5 6 6 5 4 4 5 5 5 6 6 5 5 5 5 5 4 3 3 3 3 3 5 5 3 5 11
10 10 10 9 8 7 10 9 9 8 6 5 5 5 5 7 7 5 5 7 4 3 4 4 5 5 5 6 7 6 7 6 7 6 5 6 6 5 6 5 6 6 6 6 6 6 6 6 5 5 5 5 5 5 5 6 5 6 6 7 8 8 6
9 9 8 7 8 8 9 10 7 7 5 5 5 5 5 6 5 4 5 5 4 4 4 4 4 4 6 5 5 5 6 5 5 6 6 7 7 6 7 7 6 5 6 6 6 6 6 6 6 5 6 6 6 7 7 7 7 7 10 8 11 12 12
11 10 10 9 8 7 8 10 8 7 6 5 5 4 4 4 5 5 6 5 4 4 4 4 4 5 5 5 5 6 4 5 4 5 6 6 6 6 7 6 6 6 6 6 6 6 6 6 6 6 6 5 6 7 7 7 7 6 8 10 8 7 7
10 9 8 8 7 7 7 7 7 7 6 5 4 5 5 5 6 6 3 3 4 4 4 4 5 5 5 5 5 4 4 5 4 5 5 5 5 4 4 4 5 5 5 5 5 5 5 6 6 6 7 6 6 6 7 6 6 6 5 5 5 5 7
9 9 10 10 7 7 7 6 7 6 5 4 4 5 5 5 5 4 4 5 4 5 4 5 5 5 5 6 5 4 4 5 4 4 5 4 5 5 5 5 5 4 4 5 5 5 5 6 6 6 6 7 7 7 7 7 6 7 6 5 6 6 7
8 7 6 7 7 7 6 7 6 5 5 5 4 4 4 4 4 3 4 4 4 4 5 5 5 5 5 6 5 6 5 5 9 8 5 4 5 5 6 5 5 6 6 6 6 5 6 6 6 6 6 7 7 8 8 8 7 6 7 8 9 9 8
6 7 7 7 6 7 7 6 6 5 5 4 3 4 4 4 3 3 4 3 3 4 4 4 4 5 5 5 5 5 5 5 5 5 5 5 4 4 4 5 5 6 5 4 4 5 5 6 6 5 5 4 6 6 7 7 7 7 8 10 9 8 8
7 7 6 6 6 6 6 5 6 6 5 4 3 4 4 3 2 2 3 3 3 3 4 3 3 4 4 4 5 4 5 5 5 5 6 6 5 6 5 6 5 4 5 5 7 10 9 2 3 6 6 6 6 4 4 6 8 12 16 15 14 13 10
8 6 7 5 5 4 6 6 6 6 5 4 4 4 3 2 1 1 3 3 2 3 3 2 2 2 3 3 4 5 5 5 5 5 5 6 6 6 7 7 4 5 8 7 9 9 11 11 10 11 10 5 5 8 9 10 12 13 13 14 16 16 15
7 8 6 4 7 7 8 7 6 6 6 5 4 4 3 2 2 3 3 3 3 2 3 2 2 1 1 1 2 2 3 3 3 4 5 5 4 5 6 6 8 7 4 7 8 9 11 12 12 12 11 11 8 5 6 10 12 14 14 15 15 15 14
Wind_Direction
147 141 140 67 55 202 186 189 182 179 179 180 180 179 177 176 178 177 178 181 187 183 185 179 182 180 189 194 187 186 187 176 178 180 173 179 181 172 177 192 193 203 195 199 210 202 214 202 201 203 190 195 199 207 208 206 208 208 197 180 203 181 197
169 71 50 41 49 24 242 188 191 182 183 183 182 180 178 179 178 179 182 183 186 184 183 182 181 185 187 189 176 181 185 182 177 180 179 181 172 175 180 180 187 197 198 205 204 212 204 208 200 200 201 206 212 207 205 207 204 200 189 171 173 209 198
83 84 83 102 96 170 241 190 174 187 190 185 184 181 182 183 181 182 180 182 186 186 183 184 185 185 184 180 176 185 188 181 171 170 179 194 196 184 185 189 190 188 200 200 199 206 206 206 205 205 198 208 219 210 206 208 206 198 196 176 180 200 213
113 121 139 157 173 200 196 208 164 163 180 189 190 188 186 185 182 183 181 182 182 181 185 191 187 186 184 181 184 184 187 188 183 176 179 187 203 188 174 191 203 198 191 201 204 200 203 198 204 209 205 204 218 218 206 212 207 200 204 188 193 200 211
133 140 149 157 178 189 202 200 175 152 165 183 194 194 191 186 181 181 187 186 182 183 186 186 187 189 190 187 186 185 188 186 187 181 174 177 187 184 186 192 195 196 203 203 200 203 205 198 205 206 213 205 216 212 212 211 210 199 203 195 199 200 217
148 162 164 166 178 199 198 198 190 169 176 180 164 152 144 149 172 197 194 187 187 180 154 128 144 170 187 189 182 179 176 189 187 187 182 181 180 189 195 198 194 203 203 210 199 203 203 200 199 203 206 208 211 212 209 205 212 196 196 196 207 205 210
152 161 160 161 189 207 212 206 83 53 42 99 102 106 88 79 71 63 53 40 38 65 77 107 145 151 141 141 175 173 185 192 191 198 196 191 190 192 196 196 199 201 208 200 212 205 206 208 208 202 205 206 207 211 209 206 210 203 191 192 207 218 218
132 137 138 132 147 162 169 63 52 27 46 89 98 102 105 94 86 92 102 111 117 139 188 180 188 163 132 158 168 168 163 154 148 162 175 206 213 212 204 203 200 206 206 208 220 204 212 211 215 210 207 206 208 212 215 215 212 204 191 199 206 219 213
118 120 122 144 143 125 87 67 51 42 29 75 105 108 107 99 95 96 108 122 143 148 173 195 194 144 159 177 177 169 167 166 173 172 175 180 186 205 215 209 209 206 209 215 222 215 215 216 212 209 207 211 211 208 214 218 222 212 198 203 204 214 222
95 90 78 77 76 81 85 87 69 66 29 16 97 111 113 121 134 149 135 129 137 151 172 173 116 93 178 198 184 174 172 177 177 176 174 176 174 188 199 195 194 189 209 228 235 225 222 218 215 207 204 209 212 210 213 216 221 221 214 211 206 210 219
87 87 82 75 73 77 85 76 61 64 81 33 95 110 119 139 162 178 151 130 127 157 183 163 145 148 178 201 197 186 180 176 176 184 183 177 172 184 180 205 223 207 203 209 222 231 230 229 215 207 202 209 211 210 211 216 214 217 220 220 212 213 219
87 91 91 89 82 72 79 83 77 61 58 65 67 114 137 153 162 167 124 114 134 199 194 138 129 148 176 195 197 190 187 181 175 186 194 200 197 193 197 202 210 238 266 220 217 221 218 217 219 210 208 210 214 211 212 213 213 216 219 218 215 214 220
80 83 90 91 89 86 77 65 65 63 60 61 51 55 86 100 118 111 120 143 169 186 184 168 177 178 178 187 197 186 178 178 190 190 195 209 214 202 203 219 222 220 238 258 262 223 215 217 214 217 219 219 212 214 214 215 214 216 220 224 221 217 216
85 80 78 83 89 86 79 68 57 67 74 73 67 58 70 80 78 87 130 155 168 170 170 175 181 184 158 178 208 193 174 181 187 190 203 211 210 206 206 210 221 223 223 220 250 265 256 232 220 222 210 222 221 220 215 215 217 218 220 223 223 220 221
94 92 88 86 88 87 88 83 80 74 73 76 83 78 70 73 94 106 102 178 128 111 156 167 181 162 106 92 344 331 339 307 240 195 195 196 200 211 213 206 224 244 241 226 229 234 235 254 252 234 222 219 217 225 223 217 219 216 216 219 226 222 225
95 92 91 92 92 94 95 94 88 79 73 67 68 75 72 71 63 84 138 159 130 150 111 122 172 178 160 146 134 97 51 281 294 343 71 75 53 358 332 284 253 253 258 251 234 231 232 239 251 242 229 219 217 215 218 223 222 222 218 215 216 219 223
99 94 92 90 94 100 102 103 99 94 88 80 68 60 69 74 74 77 70 73 90 97 117 137 133 107 73 71 86 104 102 90 12 30 62 66 71 42 347 311 299 291 282 279 269 256 258 241 259 260 244 229 216 211 214 220 223 223 219 219 221 216 215
112 109 103 102 102 99 99 96 96 100 104 95 66 52 49 53 68 75 66 65 66 66 86 79 73 62 50 65 67 61 86 99 91 57 56 60 57 60 63 60 45 5 331 310 292 275 255 255 251 270 282 261 238 224 218 218 220 220 218 220 225 225 222
122 118 117 115 104 94 89 93 97 97 95 90 77 74 54 52 55 62 72 69 63 66 61 55 63 86 101 76 71 55 45 64 71 73 60 56 47 24 27 52 61 41 6 341 314 306 294 273 272 268 285 307 280 245 235 229 225 220 217 213 214 215 216
113 111 111 109 111 105 88 76 86 106 109 96 89 84 87 84 82 76 73 77 81 82 80 78 64 66 66 60 62 72 76 71 68 57 51 36 43 52 33 15 33 40 19 354 358 3 338 323 318 317 319 314 307 316 327 300 290 230 229 228 222 219 209
121 121 123 126 121 102 94 92 89 90 89 90 86 75 66 62 71 84 75 73 76 72 78 74 78 62 58 50 37 34 34 45 61 60 53 51 43 47 44 28 14 27 21 5 360 358 1 348 336 318 304 313 321 332 340 345 4 329 308 271 229 236 217
122 113 113 119 112 99 94 91 95 91 85 73 75 63 65 70 68 73 67 62 68 66 66 69 64 58 53 51 41 33 24 23 26 34 41 38 28 43 50 30 7 5 13 15 355 359 358 357 356 353 341 331 329 329 335 336 9 353 320 310 305 275 225
119 115 110 96 89 80 73 79 83 87 84 73 65 72 74 68 64 68 69 68 67 68 57 56 53 48 46 45 39 34 26 27 33 33 30 27 27 20 8 354 334 357 37 28 342 3 358 345 334 332 337 348 359 359 345 346 346 342 321 312 322 320 298
105 103 101 100 93 84 73 74 77 72 80 76 61 53 70 76 78 74 65 59 55 57 52 48 43 41 46 44 39 35 25 29 37 38 29 28 23 10 2 356 350 338 347 282 272 240 224 265 295 306 326 334 352 1 2 342 349 5 351 337 314 308 291
104 101 102 102 100 93 83 77 79 77 68 63 56 36 63 76 72 68 60 53 53 54 50 41 35 32 35 35 38 40 36 33 40 38 33 25 12 5 359 354 347 340 333 304 278 260 227 218 233 240 232 296 338 339 333 326 330 358 338 318 304 312 300
115 109 101 97 90 96 94 84 73 61 61 64 57 52 63 69 71 67 61 50 49 47 39 27 20 18 37 37 35 35 31 28 25 24 26 16 3 357 351 345 345 345 336 323 309 292 284 275 261 267 273 224 192 228 290 312 310 313 313 259 283 273 272
108 110 112 108 108 100 88 81 83 80 69 65 73 75 71 77 73 65 60 57 51 39 19 3 7 20 24 25 27 24 22 19 17 11 7 8 360 345 347 350 343 337 340 336 334 331 324 316 302 300 298 300 291 260 257 252 283 292 291 290 255 269 252
103 92 87 94 97 93 93 90 86 83 71 58 60 58 63 70 73 67 56 51 42 12 350 18 22 25 27 28 24 19 18 14 9 17 12 5 8 7 1 353 350 349 348 345 346 347 346 343 335 324 318 317 316 301 289 287 281 306 327 325 293 233 234
112 112 111 105 93 93 98 90 81 76 77 66 64 65 67 74 68 56 50 45 11 342 10 25 29 32 37 33 27 21 14 10 14 16 16 18 16 20 19 7 9 9 12 13 9 7 3 2 359 359 355 352 348 357 4 4 9 29 8 7 5 339 289
114 108 101 97 106 109 99 96 90 82 68 61 61 62 65 76 73 56 46 16 335 1 15 24 27 43 44 36 29 22 15 10 15 19 20 19 15 19 20 14 12 15 16 13 13 9 6 4 3 10 13 7 355 357 2 4 3 6 5 356 0 360 342
124 118 118 116 113 107 101 106 104 95 75 59 60 54 56 58 69 52 30 349 356 14 18 19 32 47 38 31 27 24 11 10 23 27 21 21 19 21 14 9 10 13 8 11 10 10 8 357 1 6 358 1 1 350 346 345 348 351 352 352 358 357 343
107 111 112 108 104 102 107 104 100 97 91 61 51 54 52 49 57 57 14 359 23 24 30 38 38 33 29 27 27 24 21 20 19 29 16 15 17 20 16 8 3 6 1 9 5 5 2 357 357 357 354 352 352 347 337 334 339 340 342 344 346 345 352
127 131 126 120 126 118 108 107 104 102 96 83 42 61 61 66 60 67 46 36 17 19 22 36 37 32 25 19 13 14 22 24 12 29 7 6 1 2 2 357 3 1 2 3 357 355 357 355 353 350 348 346 342 338 336 336 338 337 334 342 344 347 343
127 120 120 127 131 121 117 117 121 119 108 93 83 86 85 72 67 55 54 38 32 31 39 35 31 36 26 19 10 8 3 15 4 9 360 358 359 360 354 356 356 359 350 347 343 345 347 347 343 339 336 335 332 332 335 333 334 335 339 338 342 335 330
136 135 134 130 139 134 135 137 132 131 116 118 124 108 93 88 67 57 58 51 47 60 61 47 38 36 25 16 16 3 358 4 358 357 359 354 1 0 348 346 355 346 332 321 318 333 339 333 320 317 316 320 314 320 321 322 325 322 327 316 312 312 315
148 145 152 156 151 142 135 130 128 123 122 129 133 115 105 90 66 40 60 48 45 59 68 61 57 47 19 9 7 349 354 0 355 354 356 356 352 352 347 358 344 320 322 314 323 326 328 331 292 302 313 315 295 272 275 295 296 304 311 310 313 312 304
147 149 157 160 120 97 112 125 127 125 129 150 146 124 125 113 44 16 17 54 69 90 93 79 67 51 14 3 348 343 353 357 354 352 353 350 352 347 343 333 331 303 290 286 296 305 305 308 297 298 297 280 291 307 297 277 277 286 295 308 312 314 314
156 158 155 136 133 136 130 134 139 145 155 164 153 144 137 100 42 21 15 27 42 87 100 96 98 81 338 313 295 336 348 359 350 346 346 343 344 340 335 330 326 327 282 272 282 284 291 294 297 299 303 306 297 291 305 312 311 313 316 315 316 315 318